Starlink 11504

operational
NORAD ID: 62274 Int'l Des: 2024-237 Owner: SPXS Country: US Constellation: starlink
LEOCIRCULAR

Starlink 11504について

説明を読み込み中...

リアルタイム位置

3D地球を読み込み中...

次回通過

高度履歴

Altitude vs Time

uPlot chart will show altitude changes over time

軌道要素

1 62274U 24237H 25351.56247882 .00182778 00000-0 13938-2 0 9996
2 62274 42.9983 191.8392 0001544 278.1217 81.9475 15.70891493 60088
Epoch: Dec 17, 2025 • Age: 12 hours

現在のステータス

高度 365.0 km
速度 7.69 km/s
衛星直下点 -34.74°S, 48.05°W
打ち上げ日 Dec 8, 2024
運用期間 1 years
タイプ internet

技術仕様

分類 Payload
質量 960.00 kg
乾燥質量 910.00 kg
総質量 960.00 kg
長さ 0.30 m
直径 4.10 m
スパン 29.00 m
形状 Box + pan
製造者 SPXS
バスタイプ Starlink V2MD
フェーズステータス In Orbit
所有者/国 SPXS/US

大規模コンステレーション

Loading constellations...